FENGYUN 1C DEB

Satellite information

Favourite Embed

Satellite Type and Status

DEBRISIN ORBIT

Key statistics

Satellite FENGYUN 1C DEB at a glance.

Uptime

9664

Days in orbit

Revolutions

≈ 14.2

Per day

Orbit

SSO

Sun Synchronous Orbit

Inclination

99.1

Latest

Satellite identification and parameters

Extended collection of information and parameters for FENGYUN 1C DEB.

Object identification

Identified? True

Debris? True

Object name: FENGYUN 1C DEB

International designator: 1999-025AWK

Object number (NORAD): 30849

Object ID (CCSDS): 30849

Country: PEOPLES REPUBLIC OF CHINA (PRC)

Current information (Y/N): Y

RCS size: SMALL

Orbital parameters

Period: 101.519 minutes

Inclination: 99.0516 deg

SMA: 7208.738 km

Apoapsis: 867.593 km

Periapsis: 793.614 km

RAAN: 354.8436 deg

Eccentricy: 0.00513123

Argument of periapsis: 150.6574 deg

Mean anomaly: 271.2437 deg

Mean motion: 14.18449485 rev/day

Mean motion (dot): 0.00003456 rev/day2

B* drag term: 0.0016731698 1/REarth

Two-line elements (TLE)

Creation date: Oct. 23, 2025, 2:46 a.m.

Reference frame: TEME

Reference center: EARTH

Epoch: Oct. 22, 2025, 8:44 p.m. UTC

TLE line 0: 0 FENGYUN 1C DEB

TLE line 1: 1 30849U 99025AWK 25295.86410323 .00003456 00000-0 16732-2 0 9998

TLE line 2: 2 30849 99.0516 354.8436 0051312 150.6574 271.2437 14.18449485956519

Live tracking on map

Real-time ground track for satellite FENGYUN 1C DEB.

In-orbit conjunctions

A list of the most updated potential collisions computed for object FENGYUN 1C DEB.

Target Orbit TCA Probability of collision Miss distance Type
SL-12 R/B(AUX MOTOR) LEO 2024-12-06 00:42:13 0.0001262796 28.0 (m) ROCKET BODY
METEOR 1-24 LEO 2024-09-19 18:27:48 0.001079147 128.0 (m) PAYLOAD
METEOR 1-21 LEO 2024-09-14 01:03:25 0.0002302301 286.0 (m) PAYLOAD

Associated space launch

Chinese polar orbiting meteorological satellite

FENGYUN 1C DEB was lifted into orbit during the mission ‘Long March 4B | Feng Yun 1C’, on board a Long March 4B space rocket.

The launch took place on May 10, 1999, 1:33 a.m. from Launch Complex 7.

For more information about the launch, click the button.

Launch to space Long March 4B | Feng Yun 1C
Long March 4B | Feng Yun 1C

Agency: N/A

Status: Launch Successful

Launch date: May 10, 1999, 1:33 a.m. UTC

Rocket: Long March 4B

Launch pad: Launch Complex 7

Location: Taiyuan Satellite Launch Center, People's Republic of China

...

Latest news about this satellite

There are no fresh news available about this satellite. Check back as we update our databases every day.


Newsletter sign-up

Weekly statistics, charts and insights to help you stay on top of the space industry.